Location: Goudex
(43.3760°N, 0.9543°E)
Time: 05:45:01
(UTC+00:00)

Cosmos 1980 Rocket - Pass Details

Date: 20 November 2019
Orbit: 828 x 851 km, 71.0° (Epoch: 12 December)

Event Time Altitude Azimuth Distance (km) Brightness Sun altitude
Exits shadow 04:19:38 12° 186° (S) 2,302 4.4 -28.1°
Drops below altitude 10° 04:20:05 10° 184° (S) 2,460 4.6 -28.0°
Sets 04:22:37 0° 178° (S) 3,387 5.4 -27.5°
